Regional Weather Roundup
Issued by NWS Charleston, SC

Current Version | Previous Version | Graphics & Text | Print | Product List | Glossary On
Versions: 1 2 3 4 5 6 7 8 9 10 11 12 13 14 15 16 17 18 19 20 21 22 23 24 25 26 27 28 29 30 31 32 33 34 35 36 37 38 39 40 41 42 43 44 45 46 47 48 49 50
000
ASUS42 KCHS 092212
RWRCHS

REGIONAL WEATHER ROUNDUP
NATIONAL WEATHER SERVICE CHARLESTON SC
500 PM EST FRI DEC 09 2016

NOTE: "FAIR" INDICATES FEW OR NO CLOUDS BELOW 12,000 FEET WITH NO
SIGNIFICANT WEATHER AND/OR OBSTRUCTIONS TO VISIBILITY.

NOT ALL STATIONS ARE QUALITY CONTROLLED. USE DATA WITH CAUTION...
ESPECIALLY DEWPOINT OBSERVATIONS.

SCZ027-030-031-034>040-042>050-092300-
...SOUTHEAST SOUTH CAROLINA...

CITY           SKY/WX    TMP DP  RH WIND       PRES   REMARKS
N CHARLESTON   CLEAR     45  20  36 N12       30.39R
WATERFRONT PRK   N/A     49  26  40 N10       30.37S
MOUNT PLEASANT NOT AVBL
JOHNS ISLAND   FAIR      46  21  36 NW8       30.39R
PINOPOLIS        N/A     46  25  42 N8        30.31S
MONCKS CORNER  FAIR      45  18  33 N3        30.39S
SUMMERVILLE    FAIR      45  23  42 N5        30.40S
BEAUFORT MCAS  CLEAR     47  22  37 N8        30.39R
BEAUFORT ARPT  FAIR      46  23  39 N7        30.38R
HILTON HEAD IS CLEAR     52  21  30 N7        30.38R
WALTERBORO     CLEAR     48  19  32 N6        30.40R
ALLENDALE      FAIR      46  21  36 CALM      30.39R

...SOUTHERN MIDLANDS AND PEE DEE...

CITY           SKY/WX    TMP DP  RH WIND       PRES   REMARKS
GEORGETOWN     FAIR      43  21  42 N7        30.40
KINGSTREE      FAIR      43  19  39 CALM      30.40S
ORANGEBURG     CLEAR     46  17  31 N8        30.40R
BARNWELL       NOT AVBL
AIKEN          FAIR      43  18  36 NW7       30.42R
MANNING        FAIR      43  23  45 N3        30.39S
COLUMBIA       CLEAR     47  18  31 VRB6      30.40R
SUMTER         CLEAR     44  17  32 N8        30.37S
FLORENCE       CLEAR     43  18  36 N9        30.40S
MYRTLE BEACH   CLEAR     45  19  36 N14       30.41R
N MYRTLE BEACH CLEAR     42  22  44 N7        30.39R

$$

GAZ063-065-086>088-099>101-113>116-118-119-134>141-150-092300-
...SOUTHEAST GEORGIA...

CITY           SKY/WX    TMP DP  RH WIND       PRES   REMARKS
SAVANNAH ARPT  CLEAR     50  18  28 N8        30.39R
HUNTER AAF     CLEAR     50  25  37 N7        30.35R
FORT STEWART   CLEAR     50  22  33 CALM      30.37R
STATESBORO     CLEAR     48  24  39 N5        30.40R
SYLVANIA       CLEAR    N/A N/A N/A CALM      30.40R
CLAXTON        FAIR      49  24  38 NW6       30.40R

...CSRA...CENTRAL AND FAR SOUTHEAST GEORGIA...

CITY           SKY/WX    TMP DP  RH WIND       PRES   REMARKS
THOMSON        CLEAR     48  23  38 CALM      30.45R
AUGUSTA-BUSH   CLEAR     49  15  25 N9        30.40R
AUGUSTA-DANIEL CLEAR     47  17  30 NW6       30.40R
SWAINSBORO     FAIR      46  19  34 MISG      30.41R
VIDALIA        CLEAR     50  28  43 N5        30.40R
EASTMAN        FAIR      50 -13   7 NE3       30.43R
HAZLEHURST     FAIR      50  21  31 CALM      30.39R
ALMA           CLEAR     50  21  32 N7        30.39R
WAYCROSS       CLEAR     54  25  33 N5        30.38R
JESUP          FAIR      52  30  43 N3        30.39R
BAXLEY         FAIR      52  28  40 N3        30.39R
BRUNSWICK      CLEAR     52  30  43 N3        30.37S
SAINT SIMONS   CLEAR     52  29  41 NE7       30.36R

$$

SCZ027-028-034-036>038-045-046-048>050-GAZ119-141-092300-
...LAKE AND SUPPLEMENTAL COASTAL OBSERVATIONS...

STATION/POSITION TIME  TEMP    WIND        PRES    WAVE   SWELL
                       AIR SEA DIR/SP/G            HT/PER HT/PER/DIR
                 (UTC) (F)     (DEG/KT/KT) (MB)    (FT/S) (FT/S/D)
WINYAH BAY       NOT AVBL
LAKE MURRAY      2120   49      10/  1/  5 1028.4S
ACE BASIN NERRS  2045   49     350/  3     1028.0
FORT PULASKI     2148   50 60   20/  7/ 10 1028.6R
SAPELO ISLAND    2100   55     360/  7     1028.0

$$

ANZ835-935-AMZ111-154-330-350-352-354-370-450-454-472-092300-
...C-MAN AND BUOY OBSERVATIONS...

STATION/POSITION TIME  TEMP    WIND        PRES    WAVE   SWELL
                       AIR SEA DIR/SP/G            HT/PER HT/PER/DIR
                 (UTC) (F)     (DEG/KT/KT) (MB)    (FT/S) (FT/S/D)
BUOY 41004       2050   50 72  350/ 14/ 17 1027.4    5/ 6   2/ 50/ 9
BUOY 41008       2050   50 63   20/ 12/ 14 1027.7    4/ 6   3/ 70/ 6
FOLLY BEACH CMAN 2100   48     360/ 10/ 12 1029.0R
CAPERS NEARSHORE 2108   48 60  350/  8/ 14 1028.1R
FRIPP NEARSHORE  2108   51 61  360/ 10/ 14 1027.9R


STATION/POSITION TIME  TEMP    WIND        PRES    WAVE   SWELL
                       AIR SEA DIR/SP/G            HT/PER HT/PER/DIR
                 (UTC) (F)     (DEG/KT/KT) (MB)    (FT/S) (FT/S/D)
5E ST. MARYS GA  2130      65                N/A     4/ 6
FRYING PAN BUOY  2150   47 73  330/ 14/ 21 1028.3R   3/ 6   2/ 70/ 7
BUOY 41025       2150   42 75  340/ 17/ 23 1027.4R   5/10   3/ 70/10
CAPE LOOKOUT NC  2100   42     330/ 11/ 13 1027.4R
BUOY 41002       2050   60 73  350/ 17/ 23 1023.6    6/ 8   2/ 70/12
BUOY 41010       NOT AVBL
ST AUGUSTINE FL  2200   54 65  360/ 18/ 22 1028.3R


$$




USA.gov is the U.S. government's official web portal to all federal, state and local government web resources and services.